Tracking 31028 objects as of 17-Jul-2025
HD Live streaming from Space Station
objects crossing your sky now

STARLINK-32677

Track STARLINK-32677 now!
10-day predictions
STARLINK-32677 is classified as:


NORAD ID: 63020
Int'l Code: 2025-032R
Perigee: 489.3 km
Apogee: 491.0 km
Inclination: 43.0 °
Period: 94.3 minutes
Semi major axis: 6861 km
RCS: Unknown
Launch date: February 15, 2025
Source: United States (US)
Launch site: AIR FORCE EASTERN TEST RANGE (AFETR)
Your satellite tracking list
Your tracking list is empty




NASA's NSSDC Master Catalog

Two Line Element Set (TLE):
1 63020U 25032R   25197.15467320  .00008452  00000-0  31618-3 0  9996
2 63020  42.9980 231.9950 0001208 255.3690 104.7027 15.27592352 24430
Source of the keplerian elements: AFSPC